SBI7520 VVNB-ZYTL

Flight info

Callsign SBI7520
Flight time N/A
Altitude 37100
Route VVNB N0448F371 NAKH3A NAKHA R474 WUY R343 GOSMA W82 UPMAT W56 DOSKU V54 WXI W59 SUNOK W103 YQG W569 NOBUP W4 HCH W173 NIXEP NIX16A TL309 TL307 TL305 TL304 TL303 TL303 TL302 FI28 RW28 ZYTL
Aircraft B738/M-SDGIWZ/S

Departure

Time 2026-05-09 03:29
Airport Noi Bai International Airport (VVNB)

Arrival

Time N/A
Airport Dalian Zhoushuizi International Airport (ZYTL)
Time Latitude Longitude Altitude Speed Heading
2026-05-09 03:08 21.21977 105.78996 48 ft 0 kts 197°
2026-05-09 03:25 21.21979 105.78996 48 ft 1 kts 197°
2026-05-09 03:25 21.22001 105.79003 48 ft 5 kts 197°
2026-05-09 03:25 21.22047 105.79018 48 ft 8 kts 197°
2026-05-09 03:26 21.22089 105.79054 48 ft 7 kts 280°
2026-05-09 03:26 21.22085 105.79081 48 ft 0 kts 281°
2026-05-09 03:26 21.22088 105.79060 48 ft 5 kts 281°
2026-05-09 03:26 21.22101 105.78992 48 ft 12 kts 284°
2026-05-09 03:27 21.22133 105.78878 48 ft 19 kts 287°
2026-05-09 03:27 21.22173 105.78737 48 ft 18 kts 287°
2026-05-09 03:27 21.22211 105.78611 48 ft 15 kts 297°
2026-05-09 03:27 21.22289 105.78587 48 ft 11 kts 15°
2026-05-09 03:28 21.22370 105.78613 48 ft 12 kts 17°
2026-05-09 03:28 21.22449 105.78655 48 ft 12 kts 65°
2026-05-09 03:28 21.22417 105.78815 48 ft 49 kts 107°
2026-05-09 03:28 21.22244 105.79414 48 ft 117 kts 107°
2026-05-09 03:29 21.21942 105.80461 58 ft 171 kts 105°
2026-05-09 03:29 21.21554 105.81783 312 ft 199 kts 106°
2026-05-09 03:29 21.21129 105.83221 1005 ft 208 kts 104°
2026-05-09 03:29 21.20761 105.84651 1932 ft 205 kts 104°
2026-05-09 03:30 21.20348 105.86191 2260 ft 226 kts 105°
2026-05-09 03:30 21.19884 105.87852 2777 ft 242 kts 105°
2026-05-09 03:30 21.19402 105.89611 3448 ft 254 kts 105°
2026-05-09 03:30 21.18898 105.91446 4167 ft 262 kts 105°
2026-05-09 03:31 21.18374 105.93340 4930 ft 268 kts 105°
2026-05-09 03:31 21.17845 105.95252 5748 ft 272 kts 105°
2026-05-09 03:31 21.17383 105.97218 6501 ft 275 kts 95°
2026-05-09 03:31 21.17645 105.99223 7239 ft 277 kts 64°
2026-05-09 03:32 21.18856 106.00781 7968 ft 280 kts 34°
2026-05-09 03:32 21.20569 106.01730 8792 ft 279 kts 27°
2026-05-09 03:32 21.22280 106.02715 9350 ft 287 kts 31°
2026-05-09 03:32 21.24026 106.03805 10065 ft 290 kts 31°
2026-05-09 03:33 21.25803 106.04905 10327 ft 309 kts 31°
2026-05-09 03:33 21.27731 106.06100 10472 ft 330 kts 31°
2026-05-09 03:33 21.29761 106.07365 10580 ft 350 kts 31°
2026-05-09 03:33 21.31901 106.08700 11045 ft 358 kts 31°
2026-05-09 03:34 21.34040 106.10033 11486 ft 365 kts 31°
2026-05-09 03:34 21.36245 106.11410 12133 ft 366 kts 31°
2026-05-09 03:34 21.38437 106.12779 12579 ft 372 kts 31°
2026-05-09 03:34 21.40685 106.14183 13184 ft 373 kts 31°
2026-05-09 03:35 21.42910 106.15574 13665 ft 377 kts 31°
2026-05-09 03:35 21.45187 106.16997 14168 ft 380 kts 31°
2026-05-09 03:35 21.47488 106.18436 14666 ft 383 kts 31°
2026-05-09 03:35 21.49780 106.19871 15126 ft 386 kts 31°
2026-05-09 03:36 21.52092 106.21318 15584 ft 389 kts 31°
2026-05-09 03:36 21.54422 106.22777 16024 ft 391 kts 31°
2026-05-09 03:36 21.56775 106.24252 16454 ft 394 kts 31°
2026-05-09 03:36 21.59142 106.25735 16873 ft 397 kts 31°
2026-05-09 03:37 21.61531 106.27233 17280 ft 399 kts 31°
2026-05-09 03:37 21.63932 106.28739 17676 ft 402 kts 31°
2026-05-09 03:37 21.66342 106.30250 18061 ft 404 kts 31°
2026-05-09 03:37 21.68768 106.31773 18433 ft 407 kts 31°
2026-05-09 03:38 21.71213 106.33308 18799 ft 409 kts 31°
2026-05-09 03:38 21.73693 106.34867 19157 ft 411 kts 31°
2026-05-09 03:38 21.76137 106.36404 19498 ft 414 kts 31°
2026-05-09 03:38 21.78632 106.37973 19837 ft 416 kts 31°
2026-05-09 03:39 21.81144 106.39553 20166 ft 418 kts 31°
2026-05-09 03:39 21.83640 106.41124 20483 ft 420 kts 31°
2026-05-09 03:39 21.86147 106.42703 20794 ft 422 kts 31°
2026-05-09 03:39 21.88672 106.44293 21096 ft 424 kts 31°
2026-05-09 03:40 21.91227 106.45903 21392 ft 426 kts 31°
2026-05-09 03:40 21.93767 106.47505 21680 ft 428 kts 31°
2026-05-09 03:40 21.96304 106.49200 21953 ft 430 kts 35°
2026-05-09 03:40 21.98680 106.51144 22225 ft 431 kts 39°
2026-05-09 03:41 22.00987 106.53176 22506 ft 432 kts 39°
2026-05-09 03:41 22.03344 106.55220 22790 ft 434 kts 39°
2026-05-09 03:41 22.05697 106.57246 23045 ft 435 kts 39°
2026-05-09 03:41 22.08042 106.59276 23306 ft 436 kts 39°
2026-05-09 03:42 22.10420 106.61343 23550 ft 438 kts 39°
2026-05-09 03:42 22.12761 106.63381 23789 ft 440 kts 39°
2026-05-09 03:42 22.15156 106.65466 24021 ft 441 kts 39°
2026-05-09 03:42 22.17530 106.67564 24249 ft 442 kts 41°
2026-05-09 03:43 22.19747 106.69804 24461 ft 444 kts 45°
2026-05-09 03:43 22.21941 106.72192 24695 ft 445 kts 46°
2026-05-09 03:43 22.24126 106.74543 24893 ft 446 kts 45°
2026-05-09 03:43 22.26329 106.76882 25107 ft 447 kts 45°
2026-05-09 03:44 22.28553 106.79246 25310 ft 449 kts 45°
2026-05-09 03:44 22.30769 106.81609 25496 ft 450 kts 45°
2026-05-09 03:44 22.32864 106.84132 25628 ft 453 kts 52°
2026-05-09 03:44 22.34629 106.86927 25791 ft 454 kts 59°
2026-05-09 03:45 22.35969 106.89993 26040 ft 454 kts 70°
2026-05-09 03:45 22.36776 106.93249 26327 ft 453 kts 77°
2026-05-09 03:45 22.37355 106.96589 26566 ft 453 kts 78°
2026-05-09 03:45 22.37955 106.99927 26753 ft 453 kts 77°
2026-05-09 03:46 22.38584 107.03267 26995 ft 452 kts 77°
2026-05-09 03:46 22.39205 107.06600 27171 ft 453 kts 77°
2026-05-09 03:46 22.39817 107.09946 27297 ft 455 kts 77°
2026-05-09 03:46 22.40420 107.13268 27458 ft 455 kts 77°
2026-05-09 03:47 22.41033 107.16648 27597 ft 457 kts 77°
2026-05-09 03:47 22.41639 107.20006 27736 ft 458 kts 77°
2026-05-09 03:47 22.42248 107.23386 27870 ft 459 kts 77°
2026-05-09 03:47 22.42852 107.26745 27999 ft 460 kts 77°
2026-05-09 03:48 22.43466 107.30138 28124 ft 461 kts 77°
2026-05-09 03:48 22.44083 107.33530 28247 ft 462 kts 77°
2026-05-09 03:48 22.44700 107.36935 28366 ft 462 kts 77°
2026-05-09 03:48 22.45316 107.40344 28483 ft 463 kts 77°
2026-05-09 03:49 22.45934 107.43767 28595 ft 464 kts 77°
2026-05-09 03:49 22.46547 107.47166 28697 ft 465 kts 77°
2026-05-09 03:49 22.47165 107.50607 28849 ft 465 kts 77°
2026-05-09 03:49 22.47773 107.53991 29084 ft 463 kts 77°
2026-05-09 03:50 22.48388 107.57416 29229 ft 463 kts 77°
2026-05-09 03:50 22.48999 107.60828 29387 ft 462 kts 77°
2026-05-09 03:50 22.49605 107.64216 29553 ft 462 kts 77°
2026-05-09 03:50 22.50215 107.67628 29688 ft 462 kts 77°
2026-05-09 03:51 22.50824 107.71043 29842 ft 462 kts 77°
2026-05-09 03:51 22.51430 107.74444 29987 ft 461 kts 77°
2026-05-09 03:51 22.52035 107.77846 30130 ft 461 kts 77°
2026-05-09 03:51 22.52632 107.81200 30269 ft 461 kts 77°
2026-05-09 03:52 22.53240 107.84624 30409 ft 461 kts 77°
2026-05-09 03:52 22.53844 107.88035 30547 ft 461 kts 77°
2026-05-09 03:52 22.54441 107.91400 30682 ft 461 kts 77°
2026-05-09 03:52 22.55044 107.94813 30817 ft 460 kts 77°
2026-05-09 03:53 22.55638 107.98176 30948 ft 460 kts 77°
2026-05-09 03:53 22.56241 108.01596 31079 ft 460 kts 77°
2026-05-09 03:53 22.56837 108.04974 31208 ft 460 kts 77°
2026-05-09 03:53 22.57481 108.08337 31327 ft 459 kts 73°
2026-05-09 03:54 22.58475 108.11591 31430 ft 457 kts 65°
2026-05-09 03:54 22.59964 108.14647 31549 ft 454 kts 54°
2026-05-09 03:54 22.61901 108.17310 31670 ft 452 kts 45°
2026-05-09 03:54 22.64166 108.19614 31788 ft 450 kts 38°
2026-05-09 03:55 22.66608 108.21663 31914 ft 449 kts 36°
2026-05-09 03:55 22.69086 108.23708 32025 ft 449 kts 36°
2026-05-09 03:55 22.71564 108.25810 32127 ft 449 kts 37°
2026-05-09 03:55 22.74007 108.27891 32244 ft 449 kts 36°
2026-05-09 03:56 22.76467 108.29974 32357 ft 449 kts 36°
2026-05-09 03:56 22.78921 108.32044 32467 ft 449 kts 36°
2026-05-09 03:56 22.81352 108.34094 32579 ft 449 kts 36°
2026-05-09 03:56 22.83811 108.36169 32688 ft 448 kts 36°
2026-05-09 03:57 22.86272 108.38245 32798 ft 448 kts 36°
2026-05-09 03:57 22.88716 108.40308 32902 ft 448 kts 36°
2026-05-09 03:57 22.93619 108.44444 33052 ft 449 kts 36°
2026-05-09 03:58 22.98553 108.48611 33207 ft 450 kts 36°
2026-05-09 03:58 23.03474 108.52769 33357 ft 451 kts 36°
2026-05-09 03:59 23.08400 108.56935 33552 ft 451 kts 36°
2026-05-09 03:59 23.13343 108.61119 33747 ft 450 kts 36°
2026-05-09 04:00 23.18265 108.65288 33941 ft 450 kts 36°
2026-05-09 04:00 23.23176 108.69453 34122 ft 450 kts 36°
2026-05-09 04:01 23.28086 108.73615 34304 ft 449 kts 36°
2026-05-09 04:01 23.32996 108.77773 34477 ft 449 kts 36°
2026-05-09 04:02 23.37919 108.81948 34643 ft 448 kts 36°
2026-05-09 04:02 23.42802 108.86093 34805 ft 448 kts 36°
2026-05-09 04:03 23.47704 108.90258 34961 ft 448 kts 36°
2026-05-09 04:03 23.52607 108.94428 35113 ft 447 kts 36°
2026-05-09 04:04 23.57475 108.98573 35281 ft 446 kts 36°
2026-05-09 04:04 23.62325 109.02706 35462 ft 445 kts 36°
2026-05-09 04:05 23.67187 109.06853 35640 ft 443 kts 36°
2026-05-09 04:05 23.72030 109.10989 35814 ft 442 kts 36°
2026-05-09 04:06 23.76854 109.15102 35980 ft 440 kts 35°
2026-05-09 04:06 23.81878 109.18806 36135 ft 438 kts 31°
2026-05-09 04:07 23.86956 109.22455 36251 ft 438 kts 32°
2026-05-09 04:07 23.91983 109.26125 36351 ft 437 kts 32°
2026-05-09 04:08 23.97018 109.29800 36451 ft 437 kts 32°
2026-05-09 04:08 24.02066 109.33496 36551 ft 437 kts 32°
2026-05-09 04:09 24.07106 109.37190 36651 ft 436 kts 32°
2026-05-09 04:09 24.12116 109.40868 36751 ft 436 kts 32°
2026-05-09 04:10 24.17134 109.44555 36851 ft 436 kts 32°
2026-05-09 04:10 24.22140 109.48237 36951 ft 435 kts 32°
2026-05-09 04:11 24.27150 109.51926 37051 ft 435 kts 32°
2026-05-09 04:11 24.32137 109.55602 37151 ft 434 kts 32°
2026-05-09 04:12 24.34637 109.57447 37253 ft 433 kts 32°
2026-05-09 04:12 24.37144 109.59296 37256 ft 433 kts 32°
2026-05-09 04:12 24.42114 109.62972 37255 ft 435 kts 32°
2026-05-09 04:13 24.47139 109.66702 37255 ft 437 kts 32°
2026-05-09 04:13 24.52144 109.70417 37255 ft 438 kts 32°
2026-05-09 04:14 24.57199 109.74174 37255 ft 439 kts 32°
2026-05-09 04:14 24.62229 109.77915 37255 ft 440 kts 32°
2026-05-09 04:15 24.67280 109.81677 37254 ft 438 kts 32°
2026-05-09 04:15 24.72291 109.85392 37255 ft 437 kts 32°
2026-05-09 04:16 24.77312 109.89106 37227 ft 438 kts 32°
2026-05-09 04:16 24.82360 109.92848 37228 ft 438 kts 32°
2026-05-09 04:17 24.87393 109.96582 37228 ft 438 kts 32°
2026-05-09 04:17 24.92412 110.00310 37228 ft 438 kts 32°
2026-05-09 04:18 24.97448 110.04054 37228 ft 438 kts 32°
2026-05-09 04:18 25.02477 110.07797 37227 ft 439 kts 31°
2026-05-09 04:19 25.07540 110.11569 37227 ft 441 kts 31°
2026-05-09 04:19 25.12603 110.15345 37228 ft 443 kts 31°
2026-05-09 04:20 25.17695 110.19146 37229 ft 445 kts 31°
2026-05-09 04:20 25.22844 110.22988 37228 ft 447 kts 31°
2026-05-09 04:21 25.27964 110.26784 37229 ft 449 kts 31°
2026-05-09 04:22 25.35738 110.32564 37227 ft 450 kts 31°
2026-05-09 04:22 25.40910 110.36414 37228 ft 450 kts 31°
2026-05-09 04:23 25.46094 110.40260 37228 ft 449 kts 30°
2026-05-09 04:23 25.51281 110.44069 37228 ft 449 kts 30°
2026-05-09 04:24 25.56451 110.47877 37228 ft 449 kts 30°
2026-05-09 04:24 25.61739 110.51568 37228 ft 449 kts 28°
2026-05-09 04:25 25.66997 110.55183 37228 ft 449 kts 28°
2026-05-09 04:25 25.72271 110.58843 37228 ft 449 kts 28°
2026-05-09 04:26 25.77575 110.62502 37228 ft 449 kts 28°
2026-05-09 04:26 25.82890 110.66075 37228 ft 448 kts 28°
2026-05-09 04:27 25.88212 110.69672 37228 ft 449 kts 28°
2026-05-09 04:27 25.93519 110.73264 37228 ft 449 kts 28°
2026-05-09 04:28 25.98815 110.76855 37228 ft 449 kts 28°
2026-05-09 04:28 26.04125 110.80459 37228 ft 449 kts 28°
2026-05-09 04:29 26.09440 110.84065 37228 ft 449 kts 28°
2026-05-09 04:29 26.14735 110.87649 37228 ft 449 kts 28°
2026-05-09 04:30 26.20073 110.91269 37228 ft 448 kts 28°
2026-05-09 04:30 26.25337 110.94843 37228 ft 447 kts 28°
2026-05-09 04:31 26.30641 110.98447 37228 ft 446 kts 29°
2026-05-09 04:31 26.35906 111.02030 37228 ft 445 kts 29°
2026-05-09 04:32 26.41166 111.05612 37228 ft 444 kts 29°
2026-05-09 04:32 26.46401 111.09182 37228 ft 444 kts 29°
2026-05-09 04:33 26.51666 111.12776 37228 ft 444 kts 29°
2026-05-09 04:33 26.56905 111.16356 37228 ft 444 kts 29°
2026-05-09 04:34 26.62115 111.20036 37228 ft 444 kts 31°
2026-05-09 04:34 26.67252 111.23841 37228 ft 444 kts 31°
2026-05-09 04:35 26.72399 111.27612 37228 ft 444 kts 31°
2026-05-09 04:35 26.77533 111.31382 37228 ft 444 kts 31°
2026-05-09 04:36 26.82677 111.35160 37228 ft 444 kts 31°
2026-05-09 04:36 26.87843 111.38958 37230 ft 444 kts 31°
2026-05-09 04:37 26.93011 111.42734 37239 ft 445 kts 30°
2026-05-09 04:37 26.98326 111.46204 37248 ft 447 kts 27°
2026-05-09 04:38 27.03696 111.49708 37254 ft 449 kts 28°
2026-05-09 04:38 27.09086 111.53271 37255 ft 452 kts 28°
2026-05-09 04:39 27.14502 111.56845 37256 ft 454 kts 28°
2026-05-09 04:39 27.19952 111.60484 37255 ft 457 kts 29°
2026-05-09 04:40 27.25340 111.64180 37254 ft 459 kts 30°
2026-05-09 04:40 27.30765 111.67965 37255 ft 458 kts 30°
2026-05-09 04:41 27.36152 111.71703 37255 ft 457 kts 30°
2026-05-09 04:41 27.41556 111.75458 37255 ft 458 kts 30°
2026-05-09 04:42 27.46937 111.79208 37254 ft 458 kts 30°
2026-05-09 04:42 27.52364 111.82954 37256 ft 457 kts 30°
2026-05-09 04:43 27.57779 111.86682 37254 ft 459 kts 30°
2026-05-09 04:43 27.63162 111.90436 37254 ft 457 kts 30°
2026-05-09 04:44 27.68557 111.94199 37255 ft 457 kts 30°
2026-05-09 04:44 27.73980 111.97963 37256 ft 458 kts 30°
2026-05-09 04:45 27.79396 112.01699 37255 ft 458 kts 30°
2026-05-09 04:45 27.84782 112.05454 37255 ft 458 kts 30°
2026-05-09 04:46 27.90156 112.09225 37254 ft 458 kts 30°
2026-05-09 04:46 27.95564 112.13004 37255 ft 457 kts 30°
2026-05-09 04:47 28.00873 112.16709 37256 ft 457 kts 30°
2026-05-09 04:47 28.06282 112.20437 37255 ft 458 kts 29°
2026-05-09 04:48 28.11548 112.24490 37256 ft 459 kts 35°
2026-05-09 04:48 28.16641 112.28737 37255 ft 458 kts 34°
2026-05-09 04:49 28.21844 112.32873 37255 ft 459 kts 33°
2026-05-09 04:49 28.27086 112.37011 37255 ft 459 kts 33°
2026-05-09 04:50 28.32287 112.41129 37255 ft 459 kts 33°
2026-05-09 04:50 28.37488 112.45268 37255 ft 458 kts 33°
2026-05-09 04:51 28.42702 112.49411 37255 ft 459 kts 33°
2026-05-09 04:51 28.47905 112.53578 37254 ft 458 kts 33°
2026-05-09 04:52 28.53068 112.57745 37255 ft 458 kts 33°
2026-05-09 04:52 28.58261 112.61900 37255 ft 459 kts 33°
2026-05-09 04:53 28.63458 112.66046 37255 ft 458 kts 33°
2026-05-09 04:53 28.68642 112.70202 37255 ft 459 kts 33°
2026-05-09 04:54 28.73854 112.74387 37255 ft 458 kts 33°
2026-05-09 04:54 28.79045 112.78574 37255 ft 459 kts 34°
2026-05-09 04:55 28.84218 112.82745 37256 ft 459 kts 33°
2026-05-09 04:55 28.89431 112.86919 37256 ft 460 kts 34°
2026-05-09 04:56 28.94694 112.91139 37255 ft 463 kts 34°
2026-05-09 04:56 28.99926 112.95374 37255 ft 464 kts 34°
2026-05-09 04:57 29.05143 112.99632 37255 ft 466 kts 34°
2026-05-09 04:57 29.10423 113.03909 37255 ft 467 kts 33°
2026-05-09 04:58 29.15746 113.08186 37255 ft 467 kts 33°
2026-05-09 04:58 29.21015 113.12457 37255 ft 466 kts 33°
2026-05-09 04:59 29.26275 113.16759 37256 ft 467 kts 34°
2026-05-09 04:59 29.31537 113.21072 37255 ft 467 kts 33°
2026-05-09 05:00 29.36905 113.25175 37255 ft 465 kts 26°
2026-05-09 05:00 29.42650 113.28495 37255 ft 464 kts 24°
2026-05-09 05:01 29.48351 113.31898 37253 ft 465 kts 25°
2026-05-09 05:01 29.54070 113.35339 37246 ft 464 kts 25°
2026-05-09 05:02 29.59788 113.38733 37176 ft 464 kts 25°
2026-05-09 05:02 29.65500 113.42122 37174 ft 463 kts 25°
2026-05-09 05:03 29.71191 113.45518 37174 ft 464 kts 25°
2026-05-09 05:03 29.76866 113.48952 37173 ft 465 kts 25°
2026-05-09 05:04 29.82581 113.52402 37173 ft 464 kts 25°
2026-05-09 05:04 29.88307 113.55819 37174 ft 464 kts 25°
2026-05-09 05:05 29.94002 113.59241 37174 ft 465 kts 25°
2026-05-09 05:05 29.99825 113.62342 37173 ft 463 kts 19°
2026-05-09 05:06 30.05746 113.65185 37174 ft 463 kts 21°
2026-05-09 05:06 30.11643 113.68133 37174 ft 463 kts 21°
2026-05-09 05:07 30.17546 113.71094 37174 ft 463 kts 21°
2026-05-09 05:07 30.23424 113.73999 37174 ft 463 kts 21°
2026-05-09 05:08 30.29319 113.76914 37173 ft 464 kts 21°
2026-05-09 05:08 30.35235 113.79903 37174 ft 463 kts 21°
2026-05-09 05:09 30.41107 113.82900 37173 ft 463 kts 21°
2026-05-09 05:09 30.46995 113.85880 37174 ft 464 kts 21°
2026-05-09 05:10 30.52873 113.88814 37173 ft 463 kts 21°
2026-05-09 05:10 30.58781 113.91750 37174 ft 463 kts 21°
2026-05-09 05:11 30.64695 113.94705 37174 ft 463 kts 21°
2026-05-09 05:11 30.70581 113.97561 37174 ft 463 kts 21°
2026-05-09 05:12 30.76394 114.00778 37174 ft 464 kts 24°
2026-05-09 05:12 30.82189 114.04028 37174 ft 464 kts 22°
2026-05-09 05:13 30.88029 114.07156 37174 ft 464 kts 22°
2026-05-09 05:13 30.93841 114.10296 37173 ft 465 kts 22°
2026-05-09 05:14 30.99719 114.13483 37174 ft 468 kts 21°
2026-05-09 05:14 31.05601 114.16682 37172 ft 469 kts 21°
2026-05-09 05:15 31.11524 114.19880 37173 ft 470 kts 20°
2026-05-09 05:15 31.17429 114.23078 37173 ft 468 kts 20°
2026-05-09 05:16 31.23306 114.26260 37174 ft 468 kts 20°
2026-05-09 05:16 31.29181 114.29444 37173 ft 469 kts 21°
2026-05-09 05:17 31.35172 114.32436 37170 ft 465 kts 12°
2026-05-09 05:17 31.38272 114.33142 37180 ft 455 kts 359°
2026-05-09 05:17 31.41411 114.33237 37176 ft 453 kts 355°
2026-05-09 05:18 31.47720 114.33400 37175 ft 456 kts 358°
2026-05-09 05:18 31.54028 114.33695 37172 ft 454 kts 357°
2026-05-09 05:19 31.60278 114.33874 37175 ft 454 kts 356°
2026-05-09 05:19 31.66578 114.34012 37172 ft 454 kts 356°
2026-05-09 05:20 31.72873 114.34152 37174 ft 453 kts 356°
2026-05-09 05:20 31.79153 114.34322 37175 ft 454 kts 356°
2026-05-09 05:21 31.85459 114.34512 37175 ft 455 kts 356°
2026-05-09 05:21 31.91734 114.34714 37172 ft 454 kts 356°
2026-05-09 05:22 31.98004 114.34897 37175 ft 454 kts 356°
2026-05-09 05:22 32.04305 114.35078 37174 ft 454 kts 356°
2026-05-09 05:23 32.10635 114.35307 37172 ft 456 kts 357°
2026-05-09 05:23 32.16925 114.35602 37173 ft 454 kts 357°
2026-05-09 05:24 32.23201 114.35841 37174 ft 454 kts 356°
2026-05-09 05:24 32.29483 114.36101 37174 ft 456 kts 359°
2026-05-09 05:25 32.35818 114.36769 37173 ft 456 kts
2026-05-09 05:25 32.45211 114.37721 37174 ft 455 kts 360°
2026-05-09 05:26 32.51551 114.38311 37175 ft 457 kts 360°
2026-05-09 05:26 32.57827 114.38890 37174 ft 456 kts 359°
2026-05-09 05:27 32.64120 114.39476 37175 ft 456 kts 360°
2026-05-09 05:27 32.70463 114.40062 37146 ft 457 kts 360°
2026-05-09 05:28 32.76749 114.40659 37114 ft 456 kts 360°
2026-05-09 05:28 32.83052 114.41232 37095 ft 455 kts 359°
2026-05-09 05:29 32.89333 114.41741 37092 ft 456 kts 359°
2026-05-09 05:29 32.95632 114.42254 37093 ft 455 kts 359°
2026-05-09 05:30 33.01926 114.42819 37091 ft 457 kts 359°
2026-05-09 05:30 33.08293 114.43404 37093 ft 461 kts 359°
2026-05-09 05:31 33.14698 114.44079 37094 ft 464 kts 358°
2026-05-09 05:31 33.21102 114.44647 37091 ft 464 kts 358°
2026-05-09 05:32 33.27504 114.45215 37093 ft 463 kts 358°
2026-05-09 05:32 33.33899 114.45797 37093 ft 464 kts 358°
2026-05-09 05:33 33.40341 114.46394 37093 ft 464 kts 358°
2026-05-09 05:33 33.46715 114.46981 37092 ft 463 kts 358°
2026-05-09 05:34 33.53117 114.47576 37095 ft 464 kts 357°
2026-05-09 05:34 33.59558 114.48189 37093 ft 464 kts 358°
2026-05-09 05:35 33.65916 114.48878 37091 ft 463 kts 358°
2026-05-09 05:35 33.72324 114.49563 37094 ft 464 kts 358°
2026-05-09 05:36 33.78727 114.50213 37092 ft 464 kts 358°
2026-05-09 05:36 33.85168 114.50826 37092 ft 465 kts 358°
2026-05-09 05:37 33.91585 114.51389 37091 ft 463 kts 357°
2026-05-09 05:37 33.97979 114.51917 37092 ft 462 kts 357°
2026-05-09 05:38 34.04374 114.52470 37093 ft 464 kts 357°
2026-05-09 05:38 34.10791 114.53062 37093 ft 463 kts 358°
2026-05-09 05:39 34.17163 114.53739 37093 ft 464 kts 358°
2026-05-09 05:39 34.23568 114.54402 37092 ft 465 kts 358°
2026-05-09 05:40 34.29991 114.55032 37092 ft 463 kts 358°
2026-05-09 05:40 34.36362 114.55673 37092 ft 463 kts 358°
2026-05-09 05:41 34.42787 114.56287 37093 ft 465 kts 358°
2026-05-09 05:41 34.49228 114.56916 37091 ft 464 kts 358°
2026-05-09 05:42 34.55640 114.57514 37091 ft 465 kts 357°
2026-05-09 05:42 34.62047 114.58035 37093 ft 464 kts 356°
2026-05-09 05:43 34.68448 114.58550 37092 ft 462 kts 357°
2026-05-09 05:43 34.74809 114.59120 37094 ft 463 kts 358°
2026-05-09 05:44 34.81221 114.59721 37094 ft 463 kts 358°
2026-05-09 05:44 34.87608 114.60346 37094 ft 463 kts 358°
2026-05-09 05:45 34.94008 114.61060 37093 ft 464 kts 358°
2026-05-09 05:45 35.00392 114.61740 37092 ft 461 kts 356°
2026-05-09 05:46 35.06707 114.62381 37092 ft 456 kts 355°
2026-05-09 05:46 35.13035 114.62946 37094 ft 458 kts 355°
2026-05-09 05:47 35.19388 114.63476 37094 ft 459 kts 355°
2026-05-09 05:47 35.25684 114.64036 37093 ft 457 kts 355°
2026-05-09 05:48 35.32026 114.64644 37093 ft 458 kts 355°
2026-05-09 05:48 35.38353 114.65253 37092 ft 459 kts 356°
2026-05-09 05:49 35.44719 114.65867 37093 ft 459 kts 356°
2026-05-09 05:49 35.51043 114.66474 37093 ft 458 kts 356°
2026-05-09 05:50 35.57373 114.67084 37092 ft 460 kts 356°
2026-05-09 05:50 35.63749 114.67699 37092 ft 459 kts 356°
2026-05-09 05:51 35.70071 114.68294 37094 ft 459 kts 356°
2026-05-09 05:51 35.76391 114.68906 37092 ft 459 kts 356°
2026-05-09 05:52 35.82731 114.69611 37093 ft 461 kts 356°
2026-05-09 05:52 35.89115 114.70297 37093 ft 459 kts 356°
2026-05-09 05:53 35.95423 114.70939 37092 ft 459 kts 356°
2026-05-09 05:53 36.01765 114.71574 37093 ft 457 kts 356°
2026-05-09 05:54 36.08088 114.72650 37089 ft 471 kts
2026-05-09 05:54 36.11171 114.74185 37103 ft 485 kts 21°
2026-05-09 05:54 36.14108 114.76245 37093 ft 489 kts 24°
2026-05-09 05:55 36.20006 114.80372 37049 ft 488 kts 22°
2026-05-09 05:55 36.25890 114.84377 36975 ft 488 kts 22°
2026-05-09 05:56 36.31725 114.88715 36891 ft 494 kts 31°
2026-05-09 05:56 36.34293 114.91557 36876 ft 502 kts 44°
2026-05-09 05:56 36.36338 114.95077 36879 ft 510 kts 59°
2026-05-09 05:57 36.38820 115.03329 36877 ft 516 kts 74°
2026-05-09 05:57 36.40635 115.11939 36874 ft 517 kts 73°
2026-05-09 05:58 36.42629 115.20469 36874 ft 515 kts 69°
2026-05-09 05:58 36.45410 115.28645 36877 ft 514 kts 63°
2026-05-09 05:59 36.48316 115.36732 36876 ft 516 kts 64°
2026-05-09 05:59 36.51175 115.44891 36874 ft 515 kts 64°
2026-05-09 06:00 36.54020 115.53032 36877 ft 515 kts 64°
2026-05-09 06:00 36.56864 115.61176 36876 ft 515 kts 64°
2026-05-09 06:01 36.59737 115.69267 36877 ft 514 kts 64°
2026-05-09 06:01 36.62629 115.77374 36877 ft 515 kts 64°
2026-05-09 06:02 36.65516 115.85533 36877 ft 515 kts 64°
2026-05-09 06:02 36.68351 115.93602 37171 ft 508 kts 64°
2026-05-09 06:03 36.71207 116.01708 37176 ft 512 kts 64°
2026-05-09 06:03 36.74021 116.09854 37173 ft 515 kts 65°
2026-05-09 06:04 36.76799 116.18044 37176 ft 515 kts 65°
2026-05-09 06:04 36.79255 116.26400 37173 ft 516 kts 73°
2026-05-09 06:05 36.80373 116.35197 37177 ft 515 kts 88°
2026-05-09 06:05 36.80656 116.44142 37175 ft 517 kts 88°
2026-05-09 06:06 36.80956 116.53060 37174 ft 516 kts 88°
2026-05-09 06:06 36.81261 116.61941 37174 ft 515 kts 88°
2026-05-09 06:07 36.81572 116.70915 37173 ft 516 kts 89°
2026-05-09 06:07 36.81868 116.79817 37173 ft 516 kts 89°
2026-05-09 06:08 36.82144 116.88712 37175 ft 517 kts 89°
2026-05-09 06:08 36.82415 116.97694 37174 ft 517 kts 89°
2026-05-09 06:09 36.82722 117.06632 37166 ft 519 kts 83°
2026-05-09 06:09 36.83499 117.10973 37174 ft 516 kts 67°
2026-05-09 06:09 36.85127 117.14967 37192 ft 512 kts 55°
2026-05-09 06:10 36.89325 117.22048 37169 ft 505 kts 38°
2026-05-09 06:10 36.92049 117.24612 37175 ft 486 kts 20°
2026-05-09 06:10 36.95124 117.26081 37190 ft 469 kts
2026-05-09 06:11 37.01416 117.28321 37167 ft 476 kts
2026-05-09 06:11 37.07737 117.30928 37175 ft 480 kts
2026-05-09 06:12 37.14074 117.33416 37171 ft 479 kts
2026-05-09 06:12 37.20419 117.35799 37175 ft 479 kts
2026-05-09 06:13 37.26753 117.38395 37167 ft 492 kts 15°
2026-05-09 06:13 37.29692 117.40670 37184 ft 509 kts 29°
2026-05-09 06:13 37.32391 117.43555 37171 ft 517 kts 36°
2026-05-09 06:14 37.34781 117.46960 37164 ft 528 kts 51°
2026-05-09 06:14 37.36443 117.51120 37175 ft 539 kts 70°
2026-05-09 06:14 37.37215 117.55721 37192 ft 541 kts 82°
2026-05-09 06:14 37.37717 117.60422 37172 ft 543 kts 81°
2026-05-09 06:15 37.38952 117.69772 37173 ft 542 kts 79°
2026-05-09 06:15 37.40277 117.79044 37173 ft 541 kts 80°
2026-05-09 06:16 37.41512 117.88352 37174 ft 543 kts 81°
2026-05-09 06:16 37.42723 117.97684 37173 ft 541 kts 81°
2026-05-09 06:17 37.43898 118.06968 37175 ft 541 kts 81°
2026-05-09 06:17 37.45092 118.16306 37027 ft 547 kts 81°
2026-05-09 06:18 37.45694 118.21033 36913 ft 543 kts 81°
2026-05-09 06:18 37.46274 118.25696 36900 ft 539 kts 81°
2026-05-09 06:18 37.47375 118.35025 36905 ft 540 kts 82°
2026-05-09 06:19 37.48520 118.44352 36904 ft 543 kts 80°
2026-05-09 06:19 37.49774 118.53683 36904 ft 542 kts 79°
2026-05-09 06:20 37.50938 118.63068 36940 ft 542 kts 81°
2026-05-09 06:20 37.52033 118.72399 37004 ft 541 kts 82°
2026-05-09 06:21 37.53126 118.81735 37066 ft 542 kts 83°
2026-05-09 06:21 37.53831 118.91187 37065 ft 544 kts 86°
2026-05-09 06:22 37.54444 119.00704 37065 ft 544 kts 85°
2026-05-09 06:22 37.55190 119.10143 37066 ft 544 kts 84°
2026-05-09 06:23 37.55902 119.19606 37066 ft 545 kts 85°
2026-05-09 06:23 37.56531 119.29092 37066 ft 544 kts 85°
2026-05-09 06:24 37.57160 119.38580 37066 ft 544 kts 85°
2026-05-09 06:24 37.57811 119.48046 37066 ft 545 kts 85°
2026-05-09 06:25 37.58477 119.57512 37065 ft 544 kts 84°
2026-05-09 06:25 37.59148 119.66959 37065 ft 543 kts 85°
2026-05-09 06:26 37.59809 119.76416 37067 ft 545 kts 85°
2026-05-09 06:26 37.60527 119.85922 37065 ft 544 kts 85°
2026-05-09 06:27 37.61222 119.95366 37065 ft 544 kts 85°
2026-05-09 06:27 37.61901 120.04851 37066 ft 545 kts 85°
2026-05-09 06:28 37.62603 120.14366 37066 ft 544 kts 85°
2026-05-09 06:28 37.63271 120.23832 37065 ft 544 kts 85°
2026-05-09 06:29 37.63964 120.33333 37067 ft 545 kts 84°
2026-05-09 06:29 37.65126 120.42713 37069 ft 542 kts 71°
2026-05-09 06:30 37.67893 120.51451 37062 ft 534 kts 54°
2026-05-09 06:30 37.70015 120.55193 37070 ft 521 kts 39°
2026-05-09 06:30 37.72551 120.58374 37066 ft 518 kts 35°
2026-05-09 06:31 37.78062 120.63948 36439 ft 500 kts 21°
2026-05-09 06:31 37.81085 120.66128 35675 ft 496 kts 19°
2026-05-09 06:31 37.84070 120.68220 34842 ft 499 kts 20°
2026-05-09 06:32 37.87093 120.70432 33958 ft 503 kts 20°
2026-05-09 06:32 37.90073 120.72678 33054 ft 506 kts 21°
2026-05-09 06:32 37.93057 120.74931 32369 ft 501 kts 21°
2026-05-09 06:33 37.99003 120.79354 31033 ft 491 kts 20°
2026-05-09 06:33 38.01929 120.81506 30355 ft 486 kts 21°
2026-05-09 06:33 38.04812 120.83649 29691 ft 481 kts 21°
2026-05-09 06:34 38.10480 120.87904 28376 ft 470 kts 22°
2026-05-09 06:34 38.13240 120.89990 27731 ft 464 kts 22°
2026-05-09 06:34 38.15980 120.92062 27090 ft 458 kts 22°
2026-05-09 06:34 38.18681 120.94095 26455 ft 452 kts 22°
2026-05-09 06:35 38.21367 120.96207 25796 ft 451 kts 27°
2026-05-09 06:35 38.23782 120.98691 25157 ft 455 kts 37°
2026-05-09 06:35 38.25797 121.01808 24463 ft 464 kts 52°
2026-05-09 06:35 38.27264 121.05496 23788 ft 465 kts 61°
2026-05-09 06:36 38.28516 121.09199 23121 ft 461 kts 62°
2026-05-09 06:36 38.29809 121.12901 22467 ft 456 kts 61°
2026-05-09 06:36 38.31110 121.16557 21818 ft 450 kts 61°
2026-05-09 06:36 38.32377 121.20146 21177 ft 446 kts 62°
2026-05-09 06:37 38.33635 121.23746 20536 ft 441 kts 62°
2026-05-09 06:37 38.34854 121.27243 19911 ft 435 kts 62°
2026-05-09 06:37 38.36072 121.30745 19280 ft 430 kts 62°
2026-05-09 06:37 38.37271 121.34203 18679 ft 424 kts 62°
2026-05-09 06:38 38.38444 121.37588 18103 ft 418 kts 63°
2026-05-09 06:38 38.39610 121.40938 17490 ft 412 kts 61°
2026-05-09 06:38 38.41116 121.44001 16886 ft 400 kts 44°
2026-05-09 06:38 38.43216 121.46154 16310 ft 384 kts 24°
2026-05-09 06:39 38.45654 121.47367 15754 ft 373 kts 12°
2026-05-09 06:39 38.48108 121.48261 15185 ft 368 kts 12°
2026-05-09 06:39 38.50541 121.49182 14639 ft 363 kts 13°
2026-05-09 06:39 38.52948 121.50086 14085 ft 358 kts 12°
2026-05-09 06:40 38.55335 121.50771 13547 ft 352 kts
2026-05-09 06:40 38.57741 121.50957 13029 ft 344 kts 356°
2026-05-09 06:40 38.60095 121.50778 12595 ft 337 kts 354°
2026-05-09 06:40 38.62392 121.50607 12378 ft 324 kts 355°
2026-05-09 06:41 38.64595 121.50460 12266 ft 311 kts 355°
2026-05-09 06:41 38.66782 121.50298 12146 ft 321 kts 355°
2026-05-09 06:41 38.68995 121.50128 11995 ft 315 kts 355°
2026-05-09 06:41 38.71137 121.49965 11868 ft 315 kts 355°
2026-05-09 06:42 38.73373 121.49790 11446 ft 324 kts 355°
2026-05-09 06:42 38.75596 121.49618 11038 ft 319 kts 355°
2026-05-09 06:42 38.77761 121.49451 10837 ft 307 kts 354°
2026-05-09 06:42 38.79853 121.49288 10723 ft 293 kts 354°
2026-05-09 06:43 38.81840 121.49133 10607 ft 281 kts 354°
2026-05-09 06:43 38.83723 121.48986 10495 ft 269 kts 354°
2026-05-09 06:43 38.85545 121.48712 10388 ft 254 kts 341°
2026-05-09 06:43 38.86987 121.47621 10219 ft 237 kts 309°
2026-05-09 06:44 38.87817 121.45864 9990 ft 227 kts 290°
2026-05-09 06:44 38.88154 121.43947 9753 ft 218 kts 274°
2026-05-09 06:44 38.88273 121.42038 9512 ft 212 kts 275°
2026-05-09 06:44 38.88420 121.40146 9279 ft 211 kts 275°
2026-05-09 06:45 38.88560 121.38290 9050 ft 211 kts 275°